User: anonymous   Login
Location: *
(33.8649°S, 62.1526°E)
Time: 08:40:01
(UTC+00:00)
Language:

Meteor 2-20 Rocket - Orbit

View from above orbital plane
View from above orbital plane
View from above satellite
View from above satellite

Ground track
Ground track

The orbit data is extracted from the following two-line orbital elements,

1 20827U 90086B   21102.49219770  .00000002  00000-0 -11477-4 0  9994
2 20827  82.5235 269.3862 0011800 311.2782  48.7361 13.83903948542363
Epoch (UTC): 12 April 2021 11:48:45
Eccentricity: 0.0011800
inclination: 82.5235°
perigee height: 941 km
apogee height: 959 km
right ascension of ascending node: 269.3862°
argument of perigee: 311.2782°
revolutions per day: 13.83903948
mean anomaly at epoch: 48.7361°
orbit number at epoch: 54236

The dashed part of the orbit path shows where the satellite is in the earth's shadow,  

DLR